Regional Weather Roundup
Issued by NWS

Home | Current Version | Previous Version | Graphics & Text | Print | Product List | Glossary On
Versions: 1 2 3 4 5 6 7 8 9 10 11 12 13 14 15 16 17 18 19 20 21 22 23 24 25 26 27 28 29 30 31 32 33 34 35 36 37 38 39 40 41 42 43 44 45 46 47 48 49 50
000
ASUS43 KLSX 251757
RWRMO

WEATHER SUMMARY FOR MISSOURI
NATIONAL WEATHER SERVICE SPRINGFIELD MO
100 PM CDT MON SEP 25 2017

NOTE: "FAIR" INDICATES FEW OR NO CLOUDS BELOW 12,000 FEET WITH NO
       SIGNIFICANT WEATHER AND/OR OBSTRUCTIONS TO VISIBILITY.
       CURRENT SKY AND/OR WEATHER CONDITIONS ARE NOT AVAILABLE FOR
       CHILLICOTHE AND FARMINGTON.

MOZ001>031-035>038-043-044-053-054-251900-
...NORTHERN AND WESTERN MISSOURI...

CITY           SKY/WX    TMP DP  RH WIND       PRES   REMARKS
KANSAS CTY INT MOSUNNY   84  69  60 S8        29.92F
6HR MIN TEMP:  65; 6HR MAX TEMP:  84;

ST JOSEPH      SUNNY     87  68  52 S10G21    29.90F HX  90
6HR MIN TEMP:  66; 6HR MAX TEMP:  87;


$$
MOZ066>068-077>081-088>096-101>105-251900-
...SOUTHWEST MISSOURI...

CITY           SKY/WX    TMP DP  RH WIND       PRES   REMARKS
SPRINGFIELD    SUNNY     86  63  45 S14       29.97F
6HR MIN TEMP:  66; 6HR MAX TEMP:  86;

JOPLIN         SUNNY     86  68  54 SE7       29.95F
6HR MIN TEMP:  69; 6HR MAX TEMP:  86;

BRANSON        MOSUNNY   84  63  48 SE12      29.99F

$$
MOZ032>034-039>042-045>050-055>058-069>072-251900-
...CENTRAL MISSOURI...

CITY           SKY/WX    TMP DP  RH WIND       PRES   REMARKS
COLUMBIA       NOT AVBL
JEFFERSON CITY SUNNY     86  64  47 S7        29.96F
6HR MIN TEMP:  65; 6HR MAX TEMP:  86;

ROLLA          MOSUNNY   85  63  47 E7        29.99F
6HR MIN TEMP:  67; 6HR MAX TEMP:  88;

SEDALIA        SUNNY     88  67  49 S12       29.97F HX  91
6HR MIN TEMP:  70; 6HR MAX TEMP:  88;

WARRENSBURG    SUNNY     84  63  48 S9        29.94F

$$
MOZ051-052-059>065-251900-
...EAST CENTRAL MISSOURI...

CITY           SKY/WX    TMP DP  RH WIND       PRES   REMARKS
ST LOUIS INTL  MOSUNNY   87  65  47 CALM      29.98F
6HR MIN TEMP:  70; 6HR MAX TEMP:  89;


$$
MOZ072>076-082>087-097>100-106>115-251900-
...SOUTH CENTRAL AND SOUTHEAST MISSOURI...

CITY           SKY/WX    TMP DP  RH WIND       PRES   REMARKS
CAPE GIRARDEAU PTSUNNY   86  61  42 CALM      29.99F
6HR MIN TEMP:  60; 6HR MAX TEMP:  88;

POPLAR BLUFF   MOSUNNY   88  65  46 VRB5      29.98F HX  90
6HR MIN TEMP:  63; 6HR MAX TEMP:  88;

WEST PLAINS    MOSUNNY   86  63  45 VRB7      30.01F
6HR MIN TEMP:  61; 6HR MAX TEMP:  86;


$$


USA.gov is the U.S. government's official web portal to all federal, state and local government web resources and services.